User: anonymous   Login
Location: STAR School
(35.3054°N, 111.2976°W)
Time: 05:35:35
(UTC-07:00)
Language:

Transit 2A - Orbit

View from above orbital plane
View from above orbital plane
View from above satellite
View from above satellite

Ground track
Ground track

The orbit data is extracted from the following two-line orbital elements,

1    45U 60007A   19289.51529434 -.00000083  00000-0  60761-5 0  9991
2    45  66.6940 306.3546 0250384 135.1760 226.9870 14.33651807 87595
Epoch (UTC): 16 October 2019 12:22:01
Eccentricity: 0.0250384
inclination: 66.6940°
perigee height: 600 km
apogee height: 959 km
right ascension of ascending node: 306.3546°
argument of perigee: 135.1760°
revolutions per day: 14.33651807
mean anomaly at epoch: 226.9870°
orbit number at epoch: 8759

The dashed part of the orbit path shows where the satellite is in the earth's shadow,  

DLR